Location: Untermarchtal
(48.2403°N, 9.6117°E)
Time: 03:35:33
(UTC+02:00)

ISS - Pass Details

Date: 25 September 2020
Orbit: 418 x 420 km, 51.6° (Epoch: 20 October)

Event Time Altitude Azimuth Distance (km) Brightness Sun altitude
Rises 19:24:27 0° 252° (WSW) 2,360 1.7 -2.8°
Reaches altitude 10° 19:26:32 10° 254° (WSW) 1,499 0.6 -3.2°
Maximum altitude 19:29:54 75° 340° (NNW) 439 -3.6 -3.7°
Drops below altitude 10° 19:33:17 10° 67° (ENE) 1,505 -1.5 -4.3°
Enters shadow 19:34:32 - 68° (ENE) 2,017 -0.9 -4.5°
Exits shadow 20:09:48 -73° 83° (E) 12,659 3.6 -10.3°
